Weather History for YWLM - February, 2013

Change the Weather History Date:

Wednesday, February 20, 2013

  Actual Average Record
Temperature  
Mean Temperature 71 °F -  
Max Temperature 80 °F - - ()
Min Temperature 62 °F - - ()
Cooling Degree Days 6    
Growing Degree Days 21 (Base 50)    
Moisture  
Dew Point 65 °F    
Average Humidity 82    
Maximum Humidity 100    
Minimum Humidity 53    
Precipitation  
Precipitation 0.04 in - - ()
Sea Level Pressure  
Sea Level Pressure 29.98 in    
Wind  
Wind Speed 5 mph ()    
Max Wind Speed 18 mph    
Max Gust Speed -    
Visibility 6.6 miles    
Events Fog , Rain    
T = Trace of Precipitation, MM = Missing Value Source: Averaged Metar Reports

Daily Weather History Graph

Daily Weather History Graph

Search for Another Location

Airport or City:

Trip Planner

Search our weather history database for the weather conditions in past years. The results will help you decide how hot, cold, wet, or windy it might be!

Date:

Astronomy

Feb. 20, 2013 Rise Set
Actual Time 6:33 AM AEDT 7:38 PM AEDT
Civil Twilight 6:08 AM AEDT 8:04 PM AEDT
Nautical Twilight 5:37 AM AEDT 8:34 PM AEDT
Astronomical Twilight 5:06 AM AEDT 9:05 PM AEDT
Moon 3:34 PM AEDT (2/20) 1:13 AM AEDT (2/20)
Length of Visible Light 13h 56m
Length of Day
13h 05m
Waxing Gibbous, 70% of the Moon is Illuminated
Feb 20
Waxing Gibbous
Feb 26
Full
Mar 5
Last Quarter
Mar 12
New
Mar 20
First Quarter

Hourly Weather History & Observations

Time (AEDT) Temp. Heat Index Dew Point Humidity Pressure Visibility Wind Dir Wind Speed Gust Speed Precip Events Conditions
12:00 AM 66 °F - 64 °F 93% 29.97 in - Calm Calm - -  
12:00 AM 66.2 °F - 64.4 °F 94% 29.95 in 6.2 mi Calm Calm - N/A   Unknown
12:30 AM 66.2 °F - 64.4 °F 94% 29.95 in 6.2 mi Calm Calm - N/A   Unknown
1:00 AM 64.4 °F - 62.6 °F 94% 29.95 in 6.2 mi Calm Calm - N/A   Unknown
1:30 AM 64.4 °F - 62.6 °F 94% 29.95 in 6.2 mi Calm Calm - N/A   Unknown
2:00 AM 64 °F - 63 °F 94% 29.95 in - Calm Calm - -  
2:00 AM 64.4 °F - 62.6 °F 94% 29.95 in 6.2 mi Calm Calm - N/A   Unknown
2:30 AM 62.6 °F - 60.8 °F 94% 29.92 in 6.2 mi Calm Calm - N/A   Unknown
3:00 AM 63 °F - 62 °F 95% 29.94 in - Calm Calm - -  
3:00 AM 62.6 °F - 62.6 °F 100% 29.92 in 6.2 mi Calm Calm - N/A   Unknown
3:25 AM 62.6 °F - 62.6 °F 100% 29.92 in 3.7 mi Calm Calm - N/A   Unknown
3:30 AM 62.6 °F - 60.8 °F 94% 29.92 in 4.3 mi Calm Calm - N/A   Unknown
3:36 AM 62.6 °F - 60.8 °F 94% 29.92 in 6.2 mi Calm Calm - N/A   Unknown
4:00 AM 62.6 °F - 60.8 °F 94% 29.92 in 6.2 mi Calm Calm - N/A   Scattered Clouds
4:02 AM 62.6 °F - 60.8 °F 94% 29.92 in 3.1 mi Calm Calm - N/A Rain Heavy Rain Showers
4:22 AM 64.4 °F - 64.4 °F 100% 29.92 in 6.2 mi Calm Calm - N/A Rain Light Rain Showers
4:30 AM 66.2 °F - 64.4 °F 94% 29.92 in 6.2 mi Calm Calm - N/A   Mostly Cloudy
5:00 AM 65 °F - 63 °F 92% 29.94 in - Calm Calm - -  
5:00 AM 64.4 °F - 62.6 °F 94% 29.92 in 6.2 mi Calm Calm - N/A   Scattered Clouds
5:05 AM 64.4 °F - 64.4 °F 100% 29.92 in 3.1 mi Calm Calm - N/A   Scattered Clouds
5:24 AM 62.6 °F - 62.6 °F 100% 29.92 in 5.6 mi Calm Calm - N/A   Unknown
5:30 AM 64.4 °F - 62.6 °F 94% 29.92 in 5.6 mi Calm Calm - N/A   Scattered Clouds
5:41 AM 62.6 °F - 62.6 °F 100% 29.92 in 3.7 mi Calm Calm - N/A   Scattered Clouds
6:00 AM 64 °F - 63 °F 95% 29.94 in 6 mi Calm Calm - - Fog Patches of Fog
6:00 AM 64.4 °F - 62.6 °F 94% 29.92 in 3.1 mi Calm Calm - N/A Fog Patches of Fog
6:30 AM 64.4 °F - 62.6 °F 94% 29.95 in 6.2 mi Calm Calm - N/A Fog Patches of Fog
7:00 AM 64.4 °F - 62.6 °F 94% 29.95 in 6.2 mi Calm Calm - N/A   Scattered Clouds
7:30 AM 68.0 °F - 66.2 °F 94% 29.95 in 6.2 mi SSW 4.6 mph - N/A   Partly Cloudy
8:00 AM 71 °F - 69 °F 93% 29.97 in - SW 1.2 mph - -  
8:00 AM 69.8 °F - 69.8 °F 100% 29.95 in 6.2 mi SW 1.2 mph - N/A   Partly Cloudy
8:30 AM 73.4 °F - 69.8 °F 88% 29.98 in 6.2 mi South 8.1 mph - N/A   Partly Cloudy
9:00 AM 76 °F - 69 °F 75% 29.99 in 19 mi South 11.5 mph - -   Partly Cloudy
9:00 AM 75.2 °F - 69.8 °F 83% 29.98 in 6.2 mi South 11.5 mph - N/A   Partly Cloudy
9:30 AM 77.0 °F - 68.0 °F 74% 29.98 in 6.2 mi SE 15.0 mph - N/A   Scattered Clouds
10:00 AM 78.8 °F - 68.0 °F 69% 30.01 in 6.2 mi SE 17.3 mph - N/A   Partly Cloudy
11:30 AM 78.8 °F - 66.2 °F 65% 30.01 in 6.2 mi SE 18.4 mph - N/A   Partly Cloudy
12:00 PM 80 °F - 67 °F 56% 30.02 in 19 mi SE 17.3 mph - -   Partly Cloudy
12:00 PM 78.8 °F - 66.2 °F 65% 30.01 in 6.2 mi SE 17.3 mph - N/A   Partly Cloudy
12:30 PM 78.8 °F - 66.2 °F 65% 30.01 in 6.2 mi SE 17.3 mph - N/A   Partly Cloudy
1:00 PM 80.6 °F 82.7 °F 66.2 °F 61% 30.01 in 6.2 mi SE 17.3 mph - N/A   Partly Cloudy
1:30 PM 80.6 °F 82.7 °F 66.2 °F 61% 30.01 in 6.2 mi SE 17.3 mph - N/A   Partly Cloudy
2:00 PM 80 °F - 66 °F 53% 30.01 in - SE 17.3 mph - -  
2:00 PM 80.6 °F 82.7 °F 66.2 °F 61% 30.01 in 6.2 mi SE 17.3 mph - N/A   Partly Cloudy
3:00 PM 80 °F - 66 °F 54% 30.01 in 19 mi SSE 17.3 mph - -   Partly Cloudy
3:00 PM 80.6 °F 82.7 °F 66.2 °F 61% 30.01 in 6.2 mi SSE 17.3 mph - N/A   Partly Cloudy
3:30 PM 78.8 °F - 66.2 °F 65% 29.98 in 6.2 mi SE 18.4 mph - N/A   Partly Cloudy
4:00 PM 78.8 °F - 66.2 °F 65% 29.98 in 6.2 mi SE 17.3 mph - N/A   Partly Cloudy
4:30 PM 78.8 °F - 66.2 °F 65% 29.98 in 6.2 mi SSE 16.1 mph - N/A   Scattered Clouds
5:00 PM 80 °F - 66 °F 54% 30.00 in - SSE 17.3 mph - -  
5:00 PM 80.6 °F 82.7 °F 66.2 °F 61% 29.98 in 6.2 mi SSE 17.3 mph - N/A Rain Light Rain Showers
5:30 PM 77.0 °F - 66.2 °F 69% 29.98 in 6.2 mi SE 17.3 mph - N/A   Scattered Clouds
6:00 PM 77 °F - 66 °F 60% 30.01 in - SSE 15.0 mph - -  
6:00 PM 77.0 °F - 66.2 °F 69% 30.01 in 6.2 mi SSE 15.0 mph - N/A   Scattered Clouds
6:30 PM 75.2 °F - 66.2 °F 73% 30.01 in 6.2 mi SSE 12.7 mph - N/A   Scattered Clouds
7:00 PM 75.2 °F - 68.0 °F 78% 30.01 in 6.2 mi SE 10.4 mph - N/A Rain Light Rain Showers
7:30 PM 71.6 °F - 68.0 °F 88% 30.01 in 6.2 mi SE 10.4 mph - N/A   Scattered Clouds
8:00 PM 72 °F - 67 °F 81% 30.03 in - SE 9.2 mph - -  
8:00 PM 71.6 °F - 68.0 °F 88% 30.01 in 6.2 mi SE 9.2 mph - N/A   Mostly Cloudy
8:30 PM 71.6 °F - 66.2 °F 83% 30.04 in 6.2 mi SSE 9.2 mph - N/A   Scattered Clouds
9:00 PM 72 °F - 67 °F 81% 30.04 in - South 8.1 mph - -  
9:00 PM 71.6 °F - 68.0 °F 88% 30.04 in 6.2 mi South 8.1 mph - N/A   Mostly Cloudy
9:30 PM 71.6 °F - 68.0 °F 88% 30.04 in - South 8.1 mph - N/A   Clear
10:00 PM 71.6 °F - 66.2 °F 83% 30.04 in 6.2 mi SE 6.9 mph - N/A   Mostly Cloudy
10:30 PM 71.6 °F - 66.2 °F 83% 30.04 in 6.2 mi SE 8.1 mph - N/A   Overcast
11:00 PM 71 °F - 67 °F 83% 30.04 in - SE 6.9 mph - -  
11:00 PM 71.6 °F - 66.2 °F 83% 30.04 in 6.2 mi SE 6.9 mph - N/A   Scattered Clouds
11:30 PM 71.6 °F - 66.2 °F 83% 30.04 in 6.2 mi ESE 8.1 mph - N/A   Unknown